YZ-1 R/B, 44866

Orbit data source: Space-Track

YZ-1 R/B, 44866 is space debris originally from a launch on Mon, 16 Dec 2019 UTC launched from the Xichang Space Center, China (XSC). Debris objects in space refer to the collection of defunct objects orbiting the Earth. Examples of debris include non-operational satellites, rocket bodies, and fragments generated from explosions, collisions, or faulty payload assembly.

Loading next visibility...
Identifier
44866, 2019-090C
Orbit
Active
Country
Flag of CNCN / PRC
Related business
Manufacturer
CALT
Mission
Spacecraft
Bus & Motor
YZ-1, Unknown motor
Mass
~2,075 kg wet, ~2,075 kg dry
Launch date (UTC)
2019-12-16 (6 years ago)
Launch vehicle
Unknown
Launch site
Xichang Space Center, China (XSC)
Object type
Payload
Rocket body
Debris
Shape & HBR
Double Cone, 2.0 m
Radar Cross Section
5.890 m², Large (>1 m²)

Expand to show TLE details & history
Last TLE update: 1 day ago

TLE from 1 day ago
0 YZ-1 R/B
1 44866U 19090C   25258.60129681  .00000004  00000-0  00000-0 0  9996
2 44866  56.1366  77.8416 0070606  35.2636 325.2493  1.78364223 37479
Epoch: 2025-09-15T14:25Z
TLE epoch observation values (Epoch: 2025-09-15T14:25:52.044Z)
Latitude
0.00006°
Longitude
-133.43217°
Altitude
22,177.21 km
Speed
3.747 km/s
True Right ascension
05h 11m 21s
True Declination
0° 00' 00"
Sunlit
Object was in daylight at epoch
Visualization orbit readout
Latitude
Unknown
Longitude
Unknown
Altitude
Unknown
Speed
Unknown
Apparent Right ascension
Unknown
Apparent Declination
Unknown
Sunlit
N/A
Visualization observer readout
Local Sidereal Time
06:48:57
Azimuth
Unknown
Elevation
Unknown
Doppler factor
Unknown
Orbital elements
Apogee altitude
22,545.424 km
Perigee altitude
22,139.852 km
Semi-major axis
28,720.775 km
Eccentricity
0.00706
Inclination
56.1366°
RAAN
77.8416°
Arg. of periapsis
35.2636°
True anomaly
324.78475°
Mean anomaly
325.2493°
Eccentric anomaly
325.01736°
Mean motion
0.44591 °/min
Orbital period
807.33 mins
BSTAR
0
Loading maneuver chart data...
Computing Atmospheric mass density...
Loading historical data...
Loading historical data...
Loading historical data...
Loading historical data...
Loading historical data...
Loading historical data...
Loading historical data...
Other satellites on launch #90 in the year 2019 (2019-12-16 UTC)

Documentation

Showing up to 5 results
|